QPF
0.02 0.01 0.01 0.01 0.02 0.02 0.02 0.03 0.03 0.04 0.04 0.04 0.04 0.05 0.06 0.07 0.10 0.07 0.04 0.04 0.03 0.02 0.03 0.02 0.02 0.02 0.02 0.01 0.00 0.00 0.00 0.00 0.00 0.00 0.00 0.00 0.00 0.00 0.00 0.00 0.00 0.00 0.00 0.00
0.01 0.01 0.00 0.01 0.01 0.01 0.02 0.03 0.03 0.04 0.04 0.04 0.05 0.08 0.08 0.09 0.08 0.04 0.03 0.03 0.02 0.02 0.02 0.02 0.02 0.02 0.01 0.01 0.00 0.00 0.00 0.00 0.00 0.00 0.00 0.00 0.00 0.00 0.00 0.00 0.00 0.00 0.00 0.00
0.01 0.01 0.01 0.01 0.02 0.03 0.03 0.03 0.03 0.03 0.04 0.06 0.06 0.07 0.09 0.09 0.06 0.03 0.02 0.02 0.02 0.03 0.02 0.02 0.02 0.02 0.01 0.01 0.01 0.00 0.00 0.00 0.00 0.00 0.00 0.00 0.00 0.00 0.00 0.00 0.00 0.00 0.00 0.00
0.01 0.01 0.01 0.01 0.01 0.02 0.04 0.03 0.03 0.03 0.04 0.06 0.06 0.07 0.08 0.07 0.04 0.01 0.01 0.01 0.01 0.02 0.02 0.01 0.01 0.01 0.02 0.01 0.01 0.01 0.00 0.00 0.00 0.00 0.00 0.00 0.00 0.00 0.00 0.00 0.00 0.00 0.00 0.00
0.02 0.03 0.03 0.03 0.02 0.03 0.04 0.03 0.05 0.04 0.03 0.04 0.04 0.04 0.05 0.03 0.02 0.01 0.01 0.01 0.01 0.01 0.01 0.01 0.00 0.01 0.02 0.02 0.01 0.01 0.00 0.00 0.00 0.00 0.00 0.00 0.00 0.00 0.00 0.00 0.00 0.00 0.00 0.00
0.03 0.02 0.03 0.04 0.03 0.03 0.04 0.05 0.06 0.05 0.03 0.03 0.02 0.02 0.02 0.01 0.01 0.02 0.01 0.01 0.01 0.01 0.01 0.01 0.01 0.00 0.01 0.01 0.01 0.01 0.00 0.00 0.00 0.00 0.00 0.00 0.00 0.00 0.00 0.00 0.00 0.00 0.00 0.00
0.04 0.04 0.04 0.04 0.04 0.04 0.05 0.05 0.04 0.04 0.02 0.02 0.01 0.01 0.01 0.00 0.00 0.02 0.02 0.02 0.02 0.01 0.02 0.01 0.01 0.00 0.00 0.01 0.01 0.01 0.00 0.00 0.00 0.00 0.00 0.00 0.00 0.00 0.00 0.00 0.00 0.00 0.00 0.00
0.03 0.04 0.03 0.03 0.03 0.05 0.05 0.02 0.01 0.02 0.01 0.01 0.00 0.01 0.01 0.00 0.00 0.01 0.03 0.03 0.02 0.02 0.01 0.01 0.01 0.00 0.00 0.00 0.01 0.00 0.00 0.00 0.00 0.00 0.00 0.00 0.00 0.00 0.00 0.00 0.00 0.00 0.00 0.00
0.02 0.03 0.03 0.03 0.02 0.04 0.03 0.01 0.00 0.00 0.00 0.01 0.00 0.00 0.00 0.00 0.00 0.01 0.02 0.01 0.01 0.01 0.01 0.01 0.00 0.00 0.00 0.00 0.00 0.00 0.00 0.00 0.00 0.00 0.00 0.00 0.01 0.01 0.00 0.00 0.00 0.00 0.00 0.00
0.01 0.02 0.03 0.03 0.03 0.03 0.02 0.01 0.00 0.00 0.00 0.00 0.00 0.00 0.00 0.00 0.01 0.01 0.01 0.01 0.01 0.01 0.01 0.00 0.00 0.00 0.00 0.00 0.00 0.00 0.00 0.00 0.00 0.00 0.00 0.00 0.00 0.01 0.00 0.00 0.00 0.00 0.00 0.00
0.01 0.02 0.02 0.02 0.02 0.02 0.01 0.00 0.00 0.00 0.00 0.00 0.00 0.00 0.00 0.00 0.00 0.00 0.00 0.00 0.00 0.00 0.00 0.00 0.00 0.00 0.00 0.00 0.00 0.00 0.01 0.00 0.00 0.00 0.00 0.00 0.00 0.00 0.00 0.00 0.00 0.00 0.00 0.00
0.01 0.01 0.02 0.02 0.01 0.01 0.00 0.00 0.00 0.00 0.00 0.00 0.00 0.00 0.00 0.00 0.01 0.00 0.00 0.00 0.00 0.00 0.00 0.00 0.00 0.00 0.00 0.00 0.00 0.00 0.00 0.00 0.00 0.00 0.00 0.00 0.00 0.00 0.00 0.00 0.00 0.00 0.00 0.00
0.01 0.00 0.01 0.01 0.01 0.01 0.00 0.00 0.00 0.00 0.00 0.00 0.00 0.00 0.00 0.00 0.01 0.01 0.00 0.00 0.00 0.00 0.00 0.00 0.00 0.00 0.00 0.00 0.00 0.00 0.00 0.00 0.00 0.00 0.00 0.01 0.01 0.00 0.00 0.00 0.00 0.00 0.00 0.00
0.01 0.01 0.01 0.00 0.01 0.00 0.00 0.00 0.00 0.00 0.00 0.00 0.00 0.00 0.00 0.00 0.01 0.01 0.00 0.00 0.00 0.00 0.00 0.00 0.00 0.00 0.00 0.00 0.00 0.00 0.00 0.01 0.00 0.01 0.00 0.01 0.01 0.01 0.00 0.00 0.00 0.00 0.00 0.00
0.01 0.01 0.00 0.00 0.00 0.00 0.00 0.00 0.00 0.00 0.00 0.00 0.00 0.00 0.00 0.01 0.01 0.00 0.00 0.00 0.00 0.00 0.00 0.00 0.00 0.00 0.00 0.00 0.00 0.00 0.00 0.01 0.01 0.01 0.01 0.01 0.01 0.01 0.01 0.00 0.00 0.00 0.00 0.00
0.02 0.01 0.00 0.00 0.00 0.00 0.00 0.00 0.00 0.00 0.00 0.00 0.00 0.00 0.00 0.00 0.00 0.00 0.00 0.00 0.00 0.00 0.00 0.00 0.00 0.00 0.00 0.00 0.00 0.00 0.00 0.00 0.00 0.01 0.01 0.01 0.01 0.01 0.01 0.01 0.00 0.00 0.00 0.00
0.01 0.02 0.01 0.00 0.00 0.00 0.00 0.00 0.00 0.00 0.00 0.00 0.00 0.00 0.00 0.00 0.00 0.00 0.00 0.00 0.00 0.00 0.00 0.00 0.00 0.00 0.00 0.00 0.00 0.00 0.00 0.00 0.00 0.00 0.01 0.01 0.01 0.01 0.01 0.01 0.00 0.00 0.00 0.00
0.01 0.01 0.01 0.00 0.00 0.00 0.00 0.00 0.00 0.00 0.00 0.00 0.00 0.00 0.00 0.00 0.01 0.00 0.00 0.00 0.00 0.00 0.00 0.00 0.00 0.00 0.00 0.00 0.00 0.00 0.00 0.00 0.00 0.00 0.00 0.01 0.01 0.01 0.01 0.01 0.01 0.00 0.00 0.00
0.00 0.01 0.01 0.00 0.00 0.00 0.00 0.00 0.00 0.00 0.00 0.00 0.00 0.00 0.00 0.00 0.00 0.00 0.00 0.00 0.00 0.00 0.00 0.00 0.00 0.00 0.00 0.00 0.00 0.00 0.00 0.00 0.00 0.00 0.00 0.00 0.00 0.00 0.01 0.01 0.01 0.00 0.00 0.00
0.00 0.00 0.01 0.01 0.00 0.00 0.00 0.00 0.00 0.00 0.00 0.00 0.00 0.00 0.00 0.00 0.00 0.00 0.00 0.00 0.00 0.00 0.00 0.00 0.00 0.00 0.00 0.00 0.00 0.00 0.00 0.00 0.00 0.00 0.00 0.00 0.00 0.00 0.01 0.01 0.01 0.00 0.00 0.00
0.00 0.00 0.00 0.01 0.00 0.00 0.00 0.00 0.00 0.00 0.00 0.00 0.00 0.00 0.00 0.00 0.00 0.00 0.00 0.00 0.00 0.00 0.00 0.00 0.00 0.00 0.00 0.00 0.00 0.00 0.00 0.00 0.00 0.00 0.00 0.00 0.01 0.01 0.01 0.01 0.01 0.00 0.00 0.00
0.00 0.00 0.00 0.00 0.00 0.00 0.00 0.00 0.00 0.00 0.00 0.00 0.00 0.00 0.00 0.00 0.00 0.00 0.00 0.00 0.00 0.00 0.00 0.00 0.00 0.00 0.00 0.00 0.00 0.00 0.00 0.00 0.00 0.00 0.00 0.00 0.00 0.00 0.01 0.01 0.00 0.00 0.00 0.00
0.00 0.00 0.00 0.00 0.00 0.00 0.00 0.00 0.00 0.00 0.00 0.00 0.00 0.00 0.00 0.00 0.00 0.00 0.00 0.00 0.00 0.00 0.00 0.00 0.00 0.00 0.00 0.00 0.00 0.00 0.00 0.00 0.00 0.00 0.00 0.00 0.00 0.00 0.00 0.01 0.00 0.00 0.00 0.00
0.00 0.00 0.00 0.00 0.00 0.00 0.00 0.00 0.00 0.00 0.00 0.00 0.00 0.00 0.00 0.00 0.00 0.00 0.00 0.00 0.00 0.00 0.00 0.00 0.00 0.00 0.00 0.00 0.00 0.00 0.00 0.00 0.00 0.00 0.00 0.00 0.00 0.00 0.00 0.00 0.00 0.00 0.00 0.00
0.00 0.00 0.00 0.00 0.00 0.00 0.00 0.00 0.00 0.00 0.00 0.00 0.00 0.00 0.00 0.00 0.00 0.00 0.00 0.00 0.00 0.00 0.00 0.00 0.00 0.00 0.00 0.00 0.00 0.00 0.00 0.00 0.00 0.00 0.00 0.00 0.00 0.00 0.00 0.00 0.00 0.01 0.00 0.00
0.00 0.00 0.00 0.00 0.00 0.00 0.00 0.00 0.00 0.00 0.00 0.00 0.00 0.00 0.00 0.00 0.00 0.00 0.00 0.00 0.00 0.00 0.00 0.00 0.00 0.00 0.00 0.00 0.00 0.00 0.00 0.00 0.00 0.00 0.00 0.00 0.00 0.00 0.00 0.00 0.01 0.01 0.01 0.00
MSLP
1014.70 1015.49 1016.11 1016.57 1016.87 1017.05 1017.17 1017.25 1017.31 1017.36 1017.37 1017.33 1017.20 1016.99 1016.69 1016.35 1016.00 1015.68 1015.44 1015.29 1015.24 1015.28 1015.38 1015.52 1015.68 1015.84 1016.01 1016.19 1016.41 1016.66 1016.96 1017.28 1017.59 1017.86 1018.07 1018.19 1018.22 1018.16 1018.05 1017.91 1017.78 1017.66 1017.56 1017.46
1015.25 1015.95 1016.48 1016.84 1017.07 1017.21 1017.31 1017.40 1017.49 1017.58 1017.62 1017.59 1017.45 1017.19 1016.82 1016.39 1015.95 1015.56 1015.26 1015.09 1015.06 1015.14 1015.30 1015.52 1015.74 1015.96 1016.16 1016.37 1016.59 1016.85 1017.14 1017.47 1017.79 1018.09 1018.33 1018.48 1018.53 1018.48 1018.37 1018.21 1018.05 1017.90 1017.77 1017.66
1015.59 1016.16 1016.58 1016.85 1017.02 1017.14 1017.26 1017.40 1017.57 1017.71 1017.81 1017.79 1017.64 1017.33 1016.89 1016.37 1015.85 1015.38 1015.04 1014.86 1014.85 1014.98 1015.21 1015.50 1015.80 1016.08 1016.33 1016.55 1016.78 1017.03 1017.31 1017.63 1017.96 1018.27 1018.53 1018.71 1018.79 1018.76 1018.66 1018.50 1018.32 1018.15 1018.01 1017.88
1015.73 1016.16 1016.46 1016.66 1016.81 1016.95 1017.13 1017.37 1017.63 1017.86 1018.02 1018.03 1017.86 1017.50 1016.99 1016.37 1015.75 1015.21 1014.82 1014.63 1014.63 1014.82 1015.13 1015.50 1015.88 1016.22 1016.51 1016.76 1016.98 1017.21 1017.46 1017.76 1018.07 1018.39 1018.66 1018.87 1018.97 1018.98 1018.89 1018.74 1018.56 1018.39 1018.23 1018.11
1015.74 1016.03 1016.22 1016.38 1016.54 1016.75 1017.04 1017.40 1017.78 1018.12 1018.34 1018.38 1018.19 1017.77 1017.16 1016.45 1015.72 1015.10 1014.66 1014.44 1014.47 1014.70 1015.08 1015.54 1015.99 1016.40 1016.73 1016.98 1017.19 1017.39 1017.60 1017.86 1018.14 1018.44 1018.71 1018.94 1019.07 1019.11 1019.05 1018.93 1018.76 1018.59 1018.44 1018.31
1015.70 1015.85 1015.98 1016.13 1016.34 1016.66 1017.08 1017.58 1018.10 1018.54 1018.83 1018.88 1018.65 1018.16 1017.45 1016.61 1015.78 1015.07 1014.57 1014.33 1014.37 1014.64 1015.09 1015.62 1016.15 1016.61 1016.97 1017.23 1017.42 1017.57 1017.73 1017.93 1018.16 1018.43 1018.69 1018.92 1019.08 1019.15 1019.13 1019.04 1018.90 1018.75 1018.60 1018.49
1015.65 1015.72 1015.81 1015.99 1016.29 1016.73 1017.30 1017.95 1018.59 1019.12 1019.45 1019.49 1019.22 1018.63 1017.82 1016.87 1015.93 1015.12 1014.56 1014.30 1014.34 1014.65 1015.15 1015.75 1016.33 1016.84 1017.22 1017.48 1017.64 1017.75 1017.84 1017.97 1018.15 1018.37 1018.62 1018.84 1019.02 1019.13 1019.15 1019.09 1018.98 1018.85 1018.72 1018.61
1015.63 1015.65 1015.76 1015.99 1016.39 1016.96 1017.67 1018.45 1019.19 1019.78 1020.12 1020.14 1019.80 1019.12 1018.20 1017.15 1016.11 1015.23 1014.62 1014.33 1014.38 1014.71 1015.26 1015.89 1016.52 1017.06 1017.46 1017.71 1017.84 1017.89 1017.93 1017.99 1018.11 1018.29 1018.51 1018.73 1018.93 1019.06 1019.12 1019.09 1019.01 1018.90 1018.78 1018.67
1015.62 1015.64 1015.80 1016.12 1016.62 1017.31 1018.13 1018.99 1019.78 1020.39 1020.71 1020.67 1020.26 1019.51 1018.50 1017.37 1016.27 1015.35 1014.71 1014.41 1014.46 1014.81 1015.37 1016.04 1016.68 1017.24 1017.64 1017.88 1017.98 1018.00 1017.99 1018.00 1018.08 1018.22 1018.41 1018.63 1018.84 1018.99 1019.08 1019.08 1019.02 1018.92 1018.80 1018.69
1015.58 1015.66 1015.88 1016.29 1016.89 1017.66 1018.53 1019.42 1020.21 1020.79 1021.06 1020.96 1020.48 1019.66 1018.61 1017.45 1016.34 1015.42 1014.78 1014.50 1014.56 1014.92 1015.48 1016.15 1016.80 1017.35 1017.75 1017.98 1018.06 1018.06 1018.02 1018.01 1018.05 1018.17 1018.36 1018.58 1018.79 1018.96 1019.07 1019.09 1019.04 1018.93 1018.80 1018.68
1015.50 1015.65 1015.96 1016.44 1017.10 1017.89 1018.76 1019.62 1020.34 1020.84 1021.03 1020.86 1020.33 1019.50 1018.45 1017.33 1016.27 1015.40 1014.81 1014.56 1014.65 1015.01 1015.57 1016.22 1016.85 1017.39 1017.77 1017.99 1018.08 1018.08 1018.04 1018.02 1018.07 1018.19 1018.38 1018.60 1018.83 1019.01 1019.12 1019.15 1019.10 1018.99 1018.84 1018.69
1015.37 1015.61 1015.98 1016.51 1017.18 1017.94 1018.74 1019.50 1020.11 1020.49 1020.58 1020.34 1019.79 1018.98 1018.01 1016.98 1016.03 1015.27 1014.78 1014.60 1014.72 1015.09 1015.63 1016.25 1016.85 1017.35 1017.72 1017.94 1018.04 1018.06 1018.06 1018.07 1018.14 1018.29 1018.49 1018.73 1018.96 1019.15 1019.27 1019.30 1019.24 1019.12 1018.95 1018.76
1015.22 1015.54 1015.96 1016.49 1017.12 1017.79 1018.46 1019.06 1019.51 1019.74 1019.72 1019.43 1018.89 1018.15 1017.30 1016.43 1015.65 1015.05 1014.69 1014.61 1014.77 1015.15 1015.67 1016.25 1016.80 1017.27 1017.62 1017.86 1017.98 1018.05 1018.10 1018.17 1018.29 1018.47 1018.70 1018.96 1019.20 1019.40 1019.52 1019.54 1019.48 1019.34 1019.15 1018.95
1015.13 1015.50 1015.93 1016.43 1016.96 1017.49 1017.98 1018.37 1018.63 1018.70 1018.57 1018.24 1017.73 1017.10 1016.40 1015.73 1015.17 1014.76 1014.57 1014.59 1014.81 1015.20 1015.70 1016.22 1016.73 1017.16 1017.51 1017.75 1017.93 1018.05 1018.17 1018.32 1018.50 1018.73 1019.00 1019.28 1019.53 1019.73 1019.85 1019.88 1019.82 1019.68 1019.49 1019.27
1015.16 1015.55 1015.96 1016.38 1016.77 1017.12 1017.40 1017.57 1017.61 1017.51 1017.27 1016.91 1016.45 1015.94 1015.43 1014.98 1014.64 1014.44 1014.41 1014.55 1014.84 1015.23 1015.70 1016.19 1016.65 1017.05 1017.39 1017.67 1017.89 1018.09 1018.29 1018.52 1018.77 1019.06 1019.36 1019.66 1019.92 1020.12 1020.24 1020.28 1020.23 1020.11 1019.93 1019.73
1015.38 1015.76 1016.11 1016.41 1016.64 1016.79 1016.83 1016.77 1016.61 1016.34 1016.01 1015.62 1015.22 1014.83 1014.50 1014.25 1014.13 1014.12 1014.25 1014.49 1014.83 1015.24 1015.69 1016.13 1016.55 1016.94 1017.29 1017.60 1017.89 1018.17 1018.45 1018.76 1019.08 1019.41 1019.74 1020.05 1020.32 1020.53 1020.66 1020.71 1020.69 1020.60 1020.47 1020.30
1015.81 1016.14 1016.40 1016.57 1016.63 1016.57 1016.39 1016.11 1015.75 1015.34 1014.91 1014.51 1014.15 1013.87 1013.69 1013.63 1013.68 1013.84 1014.09 1014.42 1014.80 1015.22 1015.64 1016.06 1016.46 1016.84 1017.21 1017.56 1017.91 1018.27 1018.63 1019.01 1019.39 1019.76 1020.11 1020.43 1020.70 1020.90 1021.05 1021.13 1021.15 1021.11 1021.04 1020.93
1016.39 1016.65 1016.81 1016.85 1016.74 1016.49 1016.12 1015.66 1015.13 1014.60 1014.09 1013.67 1013.34 1013.14 1013.08 1013.14 1013.32 1013.60 1013.94 1014.33 1014.73 1015.15 1015.56 1015.96 1016.35 1016.75 1017.14 1017.55 1017.96 1018.39 1018.82 1019.25 1019.67 1020.07 1020.42 1020.74 1021.00 1021.21 1021.37 1021.48 1021.55 1021.58 1021.58 1021.54
1017.02 1017.20 1017.26 1017.17 1016.92 1016.52 1016.00 1015.39 1014.75 1014.12 1013.57 1013.13 1012.82 1012.67 1012.68 1012.82 1013.08 1013.42 1013.81 1014.22 1014.64 1015.05 1015.46 1015.86 1016.26 1016.68 1017.11 1017.57 1018.04 1018.53 1019.01 1019.48 1019.92 1020.31 1020.67 1020.97 1021.22 1021.43 1021.60 1021.75 1021.87 1021.96 1022.03 1022.07
1017.56 1017.66 1017.62 1017.43 1017.07 1016.57 1015.95 1015.26 1014.55 1013.88 1013.29 1012.85 1012.55 1012.43 1012.47 1012.65 1012.94 1013.30 1013.71 1014.13 1014.55 1014.96 1015.37 1015.78 1016.21 1016.65 1017.13 1017.64 1018.16 1018.68 1019.20 1019.68 1020.12 1020.51 1020.84 1021.12 1021.36 1021.56 1021.75 1021.92 1022.08 1022.23 1022.36 1022.46
1017.91 1017.92 1017.80 1017.52 1017.10 1016.54 1015.88 1015.16 1014.44 1013.76 1013.19 1012.75 1012.48 1012.37 1012.42 1012.60 1012.89 1013.26 1013.66 1014.07 1014.49 1014.91 1015.33 1015.77 1016.23 1016.71 1017.23 1017.77 1018.32 1018.87 1019.39 1019.87 1020.30 1020.66 1020.96 1021.21 1021.43 1021.63 1021.82 1022.01 1022.20 1022.39 1022.56 1022.70
1017.98 1017.91 1017.72 1017.40 1016.94 1016.37 1015.72 1015.02 1014.33 1013.70 1013.16 1012.76 1012.51 1012.42 1012.47 1012.66 1012.94 1013.29 1013.68 1014.10 1014.52 1014.96 1015.40 1015.87 1016.36 1016.88 1017.43 1018.00 1018.56 1019.11 1019.62 1020.08 1020.47 1020.80 1021.07 1021.29 1021.48 1021.67 1021.85 1022.05 1022.26 1022.46 1022.65 1022.80
1017.78 1017.64 1017.40 1017.04 1016.58 1016.03 1015.43 1014.79 1014.18 1013.62 1013.15 1012.81 1012.60 1012.54 1012.60 1012.79 1013.07 1013.41 1013.81 1014.23 1014.67 1015.13 1015.61 1016.11 1016.63 1017.18 1017.75 1018.32 1018.88 1019.41 1019.89 1020.30 1020.66 1020.94 1021.18 1021.37 1021.55 1021.72 1021.90 1022.09 1022.30 1022.50 1022.68 1022.81
1017.38 1017.18 1016.89 1016.52 1016.08 1015.57 1015.04 1014.49 1013.97 1013.51 1013.13 1012.87 1012.72 1012.69 1012.79 1012.99 1013.28 1013.63 1014.04 1014.48 1014.95 1015.44 1015.96 1016.49 1017.05 1017.61 1018.18 1018.73 1019.26 1019.75 1020.19 1020.56 1020.86 1021.11 1021.32 1021.49 1021.66 1021.82 1021.99 1022.17 1022.36 1022.54 1022.69 1022.79
1016.93 1016.67 1016.34 1015.96 1015.54 1015.09 1014.62 1014.17 1013.76 1013.40 1013.12 1012.94 1012.86 1012.89 1013.02 1013.25 1013.57 1013.95 1014.38 1014.86 1015.36 1015.89 1016.44 1017.00 1017.56 1018.13 1018.67 1019.20 1019.68 1020.12 1020.50 1020.82 1021.08 1021.30 1021.49 1021.65 1021.81 1021.98 1022.14 1022.31 1022.47 1022.62 1022.72 1022.77
1016.57 1016.26 1015.90 1015.51 1015.11 1014.70 1014.31 1013.94 1013.62 1013.36 1013.17 1013.07 1013.06 1013.15 1013.33 1013.60 1013.94 1014.35 1014.82 1015.33 1015.87 1016.43 1017.00 1017.57 1018.13 1018.67 1019.18 1019.65 1020.08 1020.45 1020.77 1021.05 1021.28 1021.48 1021.66 1021.83 1022.00 1022.17 1022.34 1022.50 1022.64 1022.74 1022.79 1022.78
Thickness
5698 5687 5680 5686 5691 5692 5688 5684 5683 5690 5703 5702 5698 5699 5704 5711 5711 5711 5711 5713 5714 5718 5723 5727 5729 5729 5728 5728 5727 5727 5725 5724 5723 5721 5719 5716 5715 5714 5714 5713 5712 5711 5710 5708
5683 5680 5692 5698 5697 5693 5688 5682 5682 5690 5701 5699 5695 5697 5703 5707 5708 5711 5712 5711 5714 5716 5720 5723 5725 5726 5726 5726 5725 5724 5723 5722 5722 5720 5718 5716 5714 5712 5711 5710 5710 5709 5708 5706
5680 5688 5701 5699 5693 5688 5686 5683 5684 5687 5694 5696 5694 5690 5696 5705 5709 5711 5713 5714 5715 5716 5717 5719 5721 5723 5724 5724 5724 5724 5722 5721 5720 5719 5717 5714 5712 5710 5709 5708 5707 5707 5706 5705
5686 5696 5699 5695 5692 5691 5683 5694 5694 5691 5683 5676 5685 5671 5689 5696 5702 5707 5710 5712 5714 5717 5718 5719 5720 5721 5722 5723 5723 5722 5721 5720 5719 5717 5715 5712 5708 5705 5705 5704 5704 5705 5704 5703
5687 5695 5695 5692 5696 5698 5692 5699 5694 5689 5681 5674 5677 5672 5679 5693 5694 5702 5708 5712 5715 5718 5719 5719 5721 5721 5722 5722 5721 5720 5719 5717 5716 5715 5714 5711 5707 5705 5704 5703 5703 5702 5702 5701
5692 5703 5702 5700 5703 5703 5698 5691 5685 5680 5674 5665 5673 5671 5674 5685 5696 5704 5710 5713 5715 5718 5719 5719 5721 5721 5720 5720 5719 5718 5716 5715 5714 5713 5711 5709 5706 5704 5703 5701 5700 5699 5699 5699
5685 5694 5702 5705 5695 5695 5693 5678 5663 5660 5656 5660 5675 5673 5678 5700 5707 5711 5712 5713 5715 5717 5717 5717 5717 5717 5717 5717 5716 5715 5714 5712 5712 5711 5709 5707 5706 5704 5702 5700 5698 5697 5696 5696
5674 5675 5695 5702 5697 5690 5687 5682 5665 5656 5654 5660 5674 5673 5689 5708 5714 5716 5717 5716 5716 5715 5715 5716 5716 5715 5715 5715 5714 5713 5711 5710 5709 5708 5707 5706 5705 5703 5701 5699 5698 5696 5695 5695
5677 5679 5699 5705 5706 5699 5685 5680 5684 5669 5665 5661 5668 5681 5697 5708 5709 5712 5712 5713 5712 5712 5713 5713 5714 5714 5714 5713 5712 5712 5710 5708 5707 5707 5706 5704 5703 5701 5700 5698 5697 5696 5695 5695
5691 5682 5694 5702 5705 5700 5697 5687 5676 5669 5658 5656 5669 5677 5684 5699 5703 5707 5708 5709 5710 5710 5711 5712 5712 5712 5712 5712 5711 5710 5709 5708 5707 5705 5704 5703 5701 5700 5699 5697 5696 5695 5694 5694
5697 5684 5687 5695 5694 5692 5690 5686 5679 5670 5670 5659 5659 5674 5703 5704 5708 5707 5707 5708 5709 5709 5709 5709 5709 5710 5710 5709 5708 5707 5706 5706 5704 5703 5702 5701 5699 5698 5697 5695 5694 5694 5693 5692
5697 5684 5678 5689 5704 5709 5703 5695 5684 5675 5669 5668 5666 5678 5711 5710 5711 5710 5708 5708 5708 5709 5708 5707 5707 5706 5706 5705 5705 5704 5703 5703 5702 5701 5699 5698 5697 5696 5695 5693 5692 5692 5691 5690
5698 5685 5673 5678 5688 5700 5700 5698 5693 5684 5673 5666 5667 5684 5706 5708 5708 5709 5708 5707 5706 5706 5705 5704 5703 5702 5702 5702 5701 5701 5700 5700 5699 5698 5696 5695 5694 5693 5692 5691 5690 5689 5688 5687
5707 5688 5681 5677 5685 5695 5697 5698 5695 5688 5675 5672 5679 5689 5700 5703 5705 5706 5706 5706 5704 5703 5703 5701 5699 5699 5699 5699 5698 5698 5697 5697 5696 5695 5693 5691 5690 5689 5689 5688 5687 5686 5685 5684
5705 5689 5692 5694 5701 5702 5702 5701 5698 5695 5691 5685 5691 5692 5701 5704 5706 5706 5706 5704 5702 5701 5700 5699 5697 5696 5696 5695 5695 5694 5693 5692 5692 5690 5688 5687 5687 5686 5685 5684 5683 5682 5681 5680
5699 5691 5693 5694 5700 5700 5699 5702 5700 5698 5696 5693 5694 5694 5707 5707 5706 5704 5703 5702 5700 5699 5698 5698 5696 5695 5693 5692 5691 5690 5689 5688 5687 5685 5684 5683 5682 5681 5680 5679 5678 5677 5675 5674
5692 5689 5683 5681 5692 5697 5688 5700 5700 5700 5702 5699 5694 5700 5704 5702 5704 5704 5702 5701 5700 5698 5697 5695 5694 5692 5690 5689 5688 5686 5685 5683 5682 5680 5679 5678 5678 5676 5675 5674 5672 5671 5669 5668
5690 5682 5673 5674 5684 5676 5695 5710 5709 5704 5704 5706 5707 5707 5705 5706 5705 5704 5704 5702 5699 5697 5695 5693 5691 5689 5687 5686 5684 5683 5680 5678 5676 5674 5673 5673 5672 5670 5669 5668 5666 5665 5663 5662
5694 5684 5670 5665 5668 5677 5696 5707 5706 5702 5700 5708 5706 5705 5702 5702 5699 5696 5701 5701 5699 5697 5694 5691 5689 5686 5683 5681 5679 5677 5674 5672 5670 5668 5667 5667 5666 5664 5663 5661 5660 5658 5656 5655
5684 5682 5670 5662 5666 5669 5694 5710 5713 5707 5695 5708 5707 5704 5700 5699 5687 5690 5698 5698 5695 5693 5690 5687 5684 5681 5677 5675 5673 5670 5666 5664 5663 5662 5661 5661 5659 5658 5656 5654 5652 5650 5649 5647
5674 5670 5665 5661 5664 5675 5699 5707 5709 5690 5696 5710 5708 5705 5701 5698 5699 5699 5697 5694 5691 5688 5685 5682 5679 5675 5672 5669 5666 5662 5659 5657 5657 5656 5655 5653 5652 5650 5648 5646 5644 5642 5640 5639
5671 5665 5661 5658 5661 5674 5701 5701 5698 5701 5711 5709 5706 5704 5700 5697 5696 5694 5692 5688 5685 5681 5678 5676 5672 5668 5665 5663 5660 5656 5652 5651 5650 5648 5646 5644 5643 5641 5640 5637 5635 5632 5630 5628
5670 5675 5672 5673 5678 5691 5696 5700 5706 5706 5704 5704 5703 5700 5697 5692 5689 5687 5683 5680 5678 5675 5671 5668 5664 5660 5656 5654 5653 5649 5646 5644 5642 5639 5636 5634 5633 5631 5629 5627 5624 5622 5619 5617
5669 5672 5670 5671 5680 5688 5691 5696 5700 5702 5702 5702 5700 5697 5694 5688 5683 5679 5676 5672 5669 5666 5663 5660 5656 5652 5648 5646 5644 5641 5639 5636 5633 5629 5626 5624 5622 5620 5619 5617 5614 5611 5609 5606
5669 5667 5666 5669 5677 5682 5688 5690 5693 5695 5695 5694 5692 5690 5687 5682 5676 5672 5668 5664 5661 5657 5654 5651 5648 5644 5640 5637 5635 5633 5630 5627 5623 5619 5617 5614 5611 5609 5607 5605 5603 5601 5599 5596
5662 5665 5666 5670 5678 5677 5680 5686 5688 5687 5686 5685 5683 5678 5676 5675 5669 5664 5659 5655 5651 5647 5644 5641 5637 5634 5631 5628 5625 5623 5620 5617 5613 5609 5605 5602 5600 5597 5594 5592 5591 5591 5588 5588